TimeCST,TemperatureF,Dew PointF,Humidity,Sea Level PressureIn,VisibilityMPH,Wind Direction,Wind SpeedMPH,Gust SpeedMPH,PrecipitationIn,Events,Conditions,WindDirDegrees,DateUTC
12:15 AM,50.0,50.0,100,30.29,3.0,North,4.6,-,N/A,,Overcast,360,2013-11-23 06:15:00
12:35 AM,50.0,48.2,94,30.28,3.0,North,4.6,-,N/A,,Overcast,360,2013-11-23 06:35:00
12:55 AM,50.0,48.2,94,30.27,4.0,North,5.8,-,N/A,,Overcast,10,2013-11-23 06:55:00
1:15 AM,50.0,46.4,87,30.27,7.0,North,3.5,-,N/A,,Overcast,350,2013-11-23 07:15:00
1:35 AM,50.0,46.4,87,30.27,7.0,North,4.6,-,N/A,,Overcast,350,2013-11-23 07:35:00
1:55 AM,50.0,46.4,87,30.27,10.0,North,8.1,-,N/A,,Overcast,10,2013-11-23 07:55:00
2:15 AM,50.0,46.4,87,30.26,7.0,NNE,9.2,-,N/A,,Overcast,20,2013-11-23 08:15:00
2:35 AM,50.0,46.4,87,30.27,7.0,North,5.8,-,N/A,,Overcast,350,2013-11-23 08:35:00
2:55 AM,50.0,46.4,87,30.27,7.0,North,5.8,-,N/A,,Overcast,360,2013-11-23 08:55:00
3:15 AM,48.2,46.4,93,30.27,7.0,North,8.1,-,N/A,,Overcast,350,2013-11-23 09:15:00
3:35 AM,48.2,46.4,93,30.26,7.0,North,5.8,-,N/A,,Overcast,10,2013-11-23 09:35:00
3:55 AM,48.2,44.6,87,30.27,5.0,North,8.1,-,N/A,,Overcast,360,2013-11-23 09:55:00
4:15 AM,48.2,44.6,87,30.27,5.0,North,6.9,-,N/A,,Overcast,360,2013-11-23 10:15:00
4:35 AM,46.4,44.6,93,30.28,5.0,North,6.9,-,N/A,,Overcast,360,2013-11-23 10:35:00
4:55 AM,46.4,44.6,93,30.29,5.0,NNW,8.1,-,N/A,,Overcast,340,2013-11-23 10:55:00
5:15 AM,46.4,44.6,93,30.29,4.0,North,9.2,-,N/A,,Drizzle,10,2013-11-23 11:15:00
5:35 AM,46.4,44.6,93,30.29,4.0,North,3.5,-,N/A,,Drizzle,350,2013-11-23 11:35:00
5:55 AM,44.6,44.6,100,30.31,4.0,North,10.4,-,N/A,,Drizzle,10,2013-11-23 11:55:00
6:15 AM,44.6,44.6,100,30.31,4.0,North,6.9,-,0.01,,Drizzle,360,2013-11-23 12:15:00
6:35 AM,44.6,44.6,100,30.32,4.0,North,5.8,-,0.01,,Drizzle,350,2013-11-23 12:35:00
6:55 AM,44.6,44.6,100,30.33,4.0,North,8.1,-,0.01,,Drizzle,360,2013-11-23 12:55:00
7:15 AM,44.6,42.8,93,30.34,4.0,North,6.9,-,N/A,,Drizzle,360,2013-11-23 13:15:00
7:35 AM,44.6,42.8,93,30.33,4.0,North,8.1,-,N/A,,Drizzle,360,2013-11-23 13:35:00
7:55 AM,44.6,42.8,93,30.34,4.0,North,4.6,-,N/A,,Drizzle,360,2013-11-23 13:55:00
8:15 AM,44.6,42.8,93,30.35,4.0,North,9.2,-,N/A,,Overcast,350,2013-11-23 14:15:00
8:35 AM,44.6,42.8,93,30.36,5.0,North,6.9,-,N/A,,Overcast,10,2013-11-23 14:35:00
8:55 AM,44.6,42.8,93,30.36,5.0,North,6.9,16.1,N/A,,Drizzle,360,2013-11-23 14:55:00
9:15 AM,44.6,42.8,93,30.37,5.0,Calm,Calm,-,N/A,,Overcast,0,2013-11-23 15:15:00
9:35 AM,44.6,42.8,93,30.37,7.0,North,10.4,-,N/A,,Overcast,360,2013-11-23 15:35:00
9:55 AM,44.6,42.8,93,30.37,10.0,North,3.5,-,N/A,,Overcast,360,2013-11-23 15:55:00
10:15 AM,44.6,42.8,93,30.37,10.0,North,9.2,-,N/A,,Overcast,360,2013-11-23 16:15:00
10:35 AM,44.6,42.8,93,30.38,10.0,North,5.8,-,N/A,,Light Drizzle,360,2013-11-23 16:35:00
10:55 AM,44.6,41.0,87,30.37,10.0,North,6.9,-,N/A,,Overcast,10,2013-11-23 16:55:00
11:15 AM,44.6,41.0,87,30.36,10.0,North,10.4,16.1,N/A,,Overcast,10,2013-11-23 17:15:00
11:35 AM,46.4,41.0,81,30.36,10.0,NNE,9.2,18.4,N/A,,Drizzle,20,2013-11-23 17:35:00
11:55 AM,44.6,41.0,87,30.35,7.0,North,3.5,-,N/A,Rain,Light Rain,350,2013-11-23 17:55:00
12:15 PM,44.6,42.8,93,30.35,7.0,North,9.2,-,N/A,,Light Drizzle,10,2013-11-23 18:15:00
12:35 PM,46.4,41.0,81,30.34,10.0,North,9.2,-,N/A,,Overcast,360,2013-11-23 18:35:00
12:55 PM,46.4,41.0,81,30.34,10.0,North,10.4,16.1,N/A,,Overcast,10,2013-11-23 18:55:00
1:15 PM,46.4,41.0,81,30.34,10.0,North,9.2,16.1,N/A,,Overcast,10,2013-11-23 19:15:00
1:35 PM,46.4,41.0,81,30.34,10.0,North,8.1,-,N/A,,Overcast,10,2013-11-23 19:35:00
1:55 PM,44.6,41.0,87,30.34,10.0,North,4.6,-,N/A,Rain,Rain,350,2013-11-23 19:55:00
2:15 PM,46.4,41.0,81,30.34,10.0,North,9.2,-,N/A,,Overcast,360,2013-11-23 20:15:00
2:35 PM,46.4,41.0,81,30.34,10.0,North,11.5,17.3,N/A,,Drizzle,10,2013-11-23 20:35:00
2:55 PM,46.4,39.2,76,30.35,10.0,North,10.4,-,N/A,,Overcast,350,2013-11-23 20:55:00
3:15 PM,46.4,39.2,76,30.36,10.0,North,6.9,-,N/A,,Overcast,360,2013-11-23 21:15:00
3:35 PM,46.4,37.4,71,30.36,10.0,North,8.1,-,N/A,,Overcast,360,2013-11-23 21:35:00
3:55 PM,44.6,37.4,76,30.37,10.0,North,4.6,-,N/A,,Overcast,350,2013-11-23 21:55:00
4:15 PM,44.6,37.4,76,30.37,10.0,NNW,3.5,-,N/A,,Mostly Cloudy,340,2013-11-23 22:15:00
4:35 PM,44.6,37.4,76,30.37,10.0,Calm,Calm,-,N/A,,Scattered Clouds,0,2013-11-23 22:35:00
4:55 PM,46.4,35.6,66,30.37,10.0,North,5.8,-,N/A,,Mostly Cloudy,360,2013-11-23 22:55:00
5:15 PM,46.4,35.6,66,30.38,10.0,North,5.8,-,N/A,,Overcast,350,2013-11-23 23:15:00
5:35 PM,44.6,35.6,71,30.39,10.0,North,6.9,-,N/A,,Mostly Cloudy,350,2013-11-23 23:35:00
5:55 PM,44.6,33.8,66,30.39,10.0,North,6.9,-,N/A,,Scattered Clouds,360,2013-11-23 23:55:00
6:15 PM,44.6,35.6,71,30.38,10.0,North,5.8,-,N/A,,Clear,360,2013-11-24 00:15:00
6:35 PM,44.6,33.8,66,30.38,10.0,North,6.9,-,N/A,,Clear,360,2013-11-24 00:35:00
6:55 PM,42.8,32.0,66,30.40,10.0,North,8.1,-,N/A,,Clear,360,2013-11-24 00:55:00
7:15 PM,42.8,32.0,66,30.41,10.0,North,4.6,-,N/A,,Clear,360,2013-11-24 01:15:00
7:35 PM,42.8,30.2,61,30.42,10.0,North,5.8,-,N/A,,Clear,360,2013-11-24 01:35:00
7:55 PM,41.0,30.2,65,30.42,10.0,North,4.6,-,N/A,,Clear,360,2013-11-24 01:55:00
8:15 PM,41.0,28.4,61,30.42,10.0,North,4.6,-,N/A,,Clear,350,2013-11-24 02:15:00
8:35 PM,39.2,28.4,65,30.42,10.0,North,4.6,-,N/A,,Clear,360,2013-11-24 02:35:00
8:55 PM,39.2,28.4,65,30.43,10.0,North,5.8,-,N/A,,Clear,350,2013-11-24 02:55:00
9:15 PM,39.2,28.4,65,30.43,10.0,North,5.8,-,N/A,,Clear,360,2013-11-24 03:15:00
9:35 PM,37.4,28.4,70,30.43,10.0,North,4.6,-,N/A,,Clear,360,2013-11-24 03:35:00
9:55 PM,37.4,28.4,70,30.42,10.0,North,5.8,-,N/A,,Clear,360,2013-11-24 03:55:00
10:15 PM,37.4,26.6,65,30.43,10.0,North,5.8,-,N/A,,Clear,360,2013-11-24 04:15:00
10:35 PM,37.4,26.6,65,30.43,10.0,North,6.9,-,N/A,,Clear,360,2013-11-24 04:35:00
10:55 PM,37.4,26.6,65,30.43,10.0,North,6.9,-,N/A,,Clear,360,2013-11-24 04:55:00
11:15 PM,35.6,26.6,70,30.44,10.0,North,3.5,-,N/A,,Clear,350,2013-11-24 05:15:00
11:35 PM,35.6,24.8,65,30.45,10.0,North,8.1,-,N/A,,Clear,10,2013-11-24 05:35:00
11:55 PM,35.6,26.6,70,30.45,10.0,North,8.1,-,N/A,,Clear,10,2013-11-24 05:55:00